Погода в Селе им. 9 января

Россия / Оренбургская область     51°44′02″N   54°59′22″E
темп.,
°C
ветер,
м/с
пор.,
м/с
влажн.,
%
обл.,
%
осадки,
мм/ч
давл.,
гПа
погр.,
м
18 апреля, вс
вс1823:00+14всв48665 0.0 1017157
02:00+12св22693 0.0 101628
05:00+11св23710 0.0 101626
08:00+12ссв23671 0.0 1016104
11:00+16св33506 0.0 1016508
14:00+20св33403 0.0 10151294
17:00+20ссв643777 0.0 10151514
20:00+15с2448100 0.3 1016166
19 апреля, пн
пн1923:00+12ссв494780 0.3 1016311
02:00+10св4866100 0.0 1016249
05:00+8в8136924 0.0 1019688
08:00+5в91461100 0.0 1021766
11:00+4в101563100 0.1 1023872
14:00+4в81360100 0.3 1024916
17:00+7в8115199 0.3 10241311
20:00+6в8124682 0.0 1025924
20 апреля, вт
вт2023:00+4в9134588 0.0 1027932
02:00+2в8144895 0.0 1028768
05:000в71350100 0.0 1030721
08:000в813460 0.0 1031843
11:00+4вюв810320 0.0 10321165
14:00+7в89270 0.0 10311428
17:00+9вюв78260 0.0 10301554
20:00+6вюв59360 0.0 1030295
21 апреля, ср
ср2123:00+4вюв4104795 0.0 1031306
02:00+1вюв37595 0.0 1032185
05:000вюв410615 0.0 1032222
08:00+2вюв49479 0.0 1033390
11:00+7вюв6831100 0.0 1032858
14:00+11юв682728 0.0 10311313
17:00+13ююв68268 0.0 10301546
20:00+10юв4840100 0.0 1031187
22 апреля, чт
чт2223:00+7юв51154100 0.0 1031262
02:00+6юв51153100 0.0 1032299
05:00+6юв41054100 0.0 1033277
08:00+6юв51154100 0.0 1033409
11:00+9ююв6941100 0.0 1033705
14:00+13ююв793384 0.0 10331413
17:00+15ююв6830100 0.0 10312014
20:00+12ююв3544100 0.0 103372